Location: Alberhill Canyon
(33.7324°N, 117.3933°W)
Time: 14:28:53
(UTC+00:00)

Daily predictions for brighter satellites

Satellite Brightness Start Highest point End
(mag) Time Altitude Azimuth Time Altitude Azimuth Time Altitude Azimuth
Cosmos 2208 Rocket 4.5 12:20:28 53° S 12:20:28 53° S 12:24:29 10° SSE
ATLAS 5 CENTAUR R/B 3.2 12:20:01 23° SE 12:21:01 26° ESE 12:24:19 10° NE
Cosmos 1766 Rocket 4.4 12:18:34 10° SSE 12:22:43 47° E 12:26:52 10° NNE
Cosmos 1867 4.1 12:24:57 46° S 12:24:57 46° S 12:28:54 10° SSE
Cosmos 1241 Rocket 4.2 12:25:05 74° NW 12:25:41 83° WSW 12:31:53 10° SSE
Meteor 2-13 Rocket 4.3 12:22:49 10° S 12:28:56 82° W 12:35:03 10° N
BREEZE-M DEB 4.0 12:31:18 34° E 12:31:18 34° E 12:34:29 10° ENE
CENTAUR R/B 4.5 12:40:22 13° NNW 12:40:22 13° NNW 12:41:53 10° N
Hubble Space Telescope 3.4 12:43:46 10° S 12:43:46 10° S 12:43:53 10° S
H-2A R/B 2.9 12:42:12 52° NE 12:42:57 68° E 12:46:43 10° S
COSMO-SKYMED 1 3.9 12:40:31 10° SE 12:44:32 38° ENE 12:48:33 10° N
Meteor 1-31 Rocket 3.7 12:41:18 10° NNE 12:45:07 49° E 12:48:54 10° S
Envisat 3.0 12:43:29 10° NNE 12:48:35 82° ESE 12:53:39 10° S
MOS 1-B Rocket 4.1 12:42:57 10° SSE 12:49:25 79° ENE 12:55:11 10° N
Cosmos 1174 4.0 12:51:49 46° ESE 12:51:55 46° ESE 12:54:47 10° NE
Cosmos 1408 Rocket 4.5 12:50:44 10° SSE 12:54:51 48° E 12:59:00 10° NNE
CZ-4B R/B 4.2 12:53:38 10° NNE 12:58:08 80° ESE 13:02:32 10° S
Cosmos 2369 Rocket 3.7 13:03:39 18° NNW 13:03:39 18° NNW 13:05:37 10° N
Cosmos 1656 Rocket 4.4 13:05:31 30° NW 13:05:31 30° NW 13:09:24 10° N
ATLAS 3B R/B 2.8 13:00:59 10° SSW 13:07:22 72° ESE 13:14:02 10° NE
Landsat 5 4.3 13:04:37 10° SSE 13:09:02 56° ENE 13:13:24 10° N
Meteor 1-10 Rocket 4.5 13:06:51 10° N 13:12:22 69° E 13:17:53 10° SSE
DELTA 2 R/B (1) 4.0 13:10:34 31° WNW 13:12:44 46° N 13:18:04 10° ENE
SJ 16-02 1.5 13:09:11 10° S 13:13:31 72° ESE 13:17:53 10° NNE
CZ-2C R/B 2.6 13:11:35 10° SSE 13:17:06 85° W 13:22:31 10° NNW
Cosmos 1354 Rocket 4.2 13:12:42 10° SW 13:17:44 46° WNW 13:22:49 10° N
CBERS 1 LM4 rocket 4.4 13:13:10 10° N 13:18:03 63° WNW 13:23:07 10° SSW
Cosmos 1515 Rocket 4.2 13:15:25 10° N 13:19:41 55° E 13:23:55 10° SSE
FALCON 9 R/B 4.1 13:04:37 22° W 13:22:46 86° SSW 13:29:41 10° ESE
SL-19 R/B 4.4 13:19:57 10° S 13:25:25 53° WSW 13:30:52 10° NNW
Cosmos 2279 Rocket 4.0 13:22:54 10° NNW 13:28:56 58° W 13:34:59 10° S
Nadezhda 4 Rocket 3.9 13:25:40 10° S 13:31:48 85° W 13:38:03 10° N
Cosmos 1500 Rocket 3.8 13:28:02 10° S 13:32:27 76° E 13:36:56 10° N
SKYMED 2 3.7 13:28:17 10° S 13:32:31 53° W 13:36:46 10° NNW
Cosmos 921 Rocket 4.3 13:33:05 21° W 13:33:38 21° W 13:37:00 10° SW
USA 215 4.3 13:30:38 10° ESE 13:36:33 39° NE 13:42:30 10° NNW
ADEOS 3.5 13:35:22 10° N 13:40:32 64° WNW 13:45:40 10° SSW
Meteor PRIRODA 3.5 13:38:09 10° NNE 13:41:47 89° WNW 13:45:25 10° SSW
CZ-4B R/B 2.6 13:40:29 10° NNE 13:44:04 84° ESE 13:47:43 10° S
Cosmos 1805 Rocket 4.3 13:40:26 10° S 13:44:44 57° E 13:49:01 10° NNE
H-2A R/B 3.5 13:41:50 10° SE 13:45:44 38° ENE 13:49:46 10° N
SL-27 R/B 2.4 13:43:21 10° NNW 13:46:55 85° ENE 13:50:23 10° SSE
Cosmos 1812 4.3 13:47:07 15° W 13:47:17 15° W 13:49:33 10° SW
Meteor 2-15 4.4 13:41:32 10° NNW 13:47:31 63° W 13:53:27 10° S
Cosmos 1340 Rocket 2.7 13:45:22 10° SSW 13:49:14 61° W 13:53:11 10° N
Cosmos 1151 Rocket 4.3 13:47:00 13° NW 13:49:27 20° W 13:52:40 10° SW
Cosmos 1092 Rocket 4.2 13:43:35 10° S 13:49:47 77° E 13:56:06 10° N
SMAP 3.9 13:46:24 10° NNE 13:50:58 54° E 13:55:30 10° S
NOAA 11 4.3 13:51:49 10° N 13:57:06 51° WNW 14:02:24 10° SSW
SL-8 R/B 3.9 13:54:54 10° NW 13:59:39 67° NE 14:04:23 10° ESE
FAST Rocket 4.2 13:57:20 10° SSW 13:59:52 43° W 14:02:32 10° N
OAO 2 Rocket 3.9 13:55:09 10° WSW 14:00:16 61° SSE 14:05:17 10° E
CZ-2C R/B 3.0 13:56:04 10° N 14:00:58 60° WNW 14:06:07 10° SSW
ATLAS 5 CENTAUR R/B 2.7 14:02:51 10° W 14:05:33 18° NW 14:08:25 10° N
CZ-4B R/B 3.5 14:03:27 10° SE 14:06:17 27° ENE 14:09:07 10° NNE
H-2A R/B 3.7 14:02:34 10° NNE 14:07:08 38° E 14:11:44 10° SSE
Cosmos 773 Rocket 4.3 14:08:30 10° NNW 14:13:28 46° WSW 14:18:21 10° S
USA 32 4.0 14:09:58 10° N 14:15:13 78° W 14:20:26 10° S
Meteor 1-27 Rocket 4.0 14:11:59 10° NNW 14:17:27 49° W 14:23:01 10° SSW
BREEZE-M DEB (TANK) 4.4 14:07:32 10° W 14:18:04 30° NW 14:21:44 10° NNE
BREEZE-M DEB (TANK) 4.3 14:13:06 10° NW 14:23:58 33° WSW 14:27:58 10° S
CZ-3 R/B 2.8 14:16:02 10° WSW 14:26:27 40° S 14:30:31 10° ESE
